W7TJC Weather Reports


time (UTC)temp
C
wind
direction
speed
KPH
gust
KPH
rain 1hr
cm
rain 24hr
cm
rain mn
cm
humidity
%
barometer
mb
20260506051209 13 207 0.0 0.0 0.00 0.00 0.00 85 1017.0
20260506050707 13 128 0.0 0.0 0.00 0.00 0.00 85 1017.3
20260506050203 13 144 0.0 0.0 0.00 0.00 0.00 85 1017.2
20260506044655 13 137 0.0 0.0 0.00 0.00 0.00 84 1017.1
20260506044151 13 130 0.0 0.0 0.00 0.00 0.00 84 1017.0
20260506043649 13 121 0.0 0.0 0.00 0.00 0.00 84 1016.9
20260506043146 13 104 0.0 0.0 0.00 0.00 0.00 84 1017.0
20260506042645 13 118 0.0 0.0 0.00 0.00 0.00 84 1017.0
20260506042143 13 130 0.0 0.0 0.00 0.00 0.00 83 1016.8
20260506041641 14 131 0.0 0.0 0.00 0.00 0.00 84 1016.8
20260506041137 14 119 0.0 0.0 0.00 0.00 0.00 84 1016.9
20260506040635 14 120 0.0 0.0 0.00 0.00 0.00 83 1016.8
20260506040132 14 120 0.0 0.0 0.00 0.00 0.00 83 1016.7
20260506035629 14 120 0.0 0.0 0.00 0.00 0.00 83 1016.7
20260506035125 15 109 0.0 0.0 0.00 0.00 0.00 83 1016.5
20260506034623 15 102 0.0 0.0 0.00 0.00 0.00 82 1016.6
20260506034120 15 115 0.0 0.0 0.00 0.00 0.00 82 1016.5
20260506033617 15 110 0.0 0.0 0.00 0.00 0.00 82 1016.4
20260506033114 15 95 0.0 0.0 0.00 0.00 0.00 81 1016.5
20260506032611 15 113 0.0 0.0 0.00 0.00 0.00 81 1016.4
20260506032108 15 110 0.0 0.0 0.00 0.00 0.00 81 1016.5
20260506031605 15 92 0.0 0.0 0.00 0.00 0.00 81 1016.5
20260506031102 15 103 0.0 0.0 0.00 0.00 0.00 81 1016.2
20260506030601 15 96 0.0 0.0 0.00 0.00 0.00 81 1016.1
20260506030057 15 90 0.0 0.0 0.00 0.00 0.00 80 1016.3
20260506025554 15 89 0.0 0.0 0.00 0.00 0.00 80 1016.3
20260506025050 15 102 0.0 0.0 0.00 0.00 0.00 80 1016.4
20260506024547 15 92 0.0 0.0 0.00 0.00 0.00 80 1016.1
20260506024044 16 77 0.0 0.0 0.00 0.00 0.00 80 1016.5
20260506023540 16 96 0.0 0.0 0.00 0.00 0.00 80 1016.2
20260506023038 16 91 0.0 0.0 0.00 0.00 0.00 79 1016.3
20260506022535 16 84 0.0 0.0 0.00 0.00 0.00 79 1016.3
20260506022032 16 92 0.0 0.0 0.00 0.00 0.00 79 1016.4
20260506021529 16 88 0.0 0.0 0.00 0.00 0.00 79 1016.4
20260506021027 16 100 0.0 0.0 0.00 0.00 0.00 78 1016.2
20260506020524 16 90 0.0 0.0 0.00 0.00 0.00 78 1016.2
20260506020022 16 67 0.0 1.6 0.00 0.00 0.00 77 1016.3
20260506015519 16 90 0.0 0.0 0.00 0.00 0.00 77 1016.3
20260506015016 16 110 0.0 0.0 0.00 0.00 0.00 76 1016.3
20260506014513 16 99 0.0 0.0 0.00 0.00 0.00 77 1016.5
20260506014009 16 87 1.6 1.6 0.00 0.00 0.00 77 1016.2
20260506013507 16 79 0.0 0.0 0.00 0.00 0.00 77 1016.5
20260506013003 16 78 0.0 0.0 0.00 0.00 0.00 77 1016.1
20260506012459 16 94 0.0 0.0 0.00 0.00 0.00 77 1016.2
20260506011957 16 101 0.0 0.0 0.00 0.00 0.00 76 1016.2
20260506011454 16 80 0.0 0.0 0.00 0.00 0.00 76 1016.4
20260506010950 16 91 1.6 1.6 0.00 0.00 0.00 76 1016.3
20260506010450 17 80 0.0 0.0 0.00 0.00 0.00 76 1016.2
20260506005945 17 85 0.0 1.6 0.00 0.00 0.00 76 1016.1
20260506005443 17 106 0.0 0.0 0.00 0.00 0.00 75 1016.2
20260506004938 17 102 0.0 0.0 0.00 0.00 0.00 76 1016.1
20260506004437 17 102 0.0 0.0 0.00 0.00 0.00 75 1016.3
20260506003932 17 123 0.0 0.0 0.00 0.00 0.00 76 1016.2
20260506003429 16 141 0.0 0.0 0.00 0.00 0.00 77 1016.4
20260506002925 16 87 0.0 0.0 0.00 0.00 0.00 77 1016.3
20260506002421 16 84 0.0 1.6 0.00 0.00 0.00 77 1016.4
20260506001917 16 82 0.0 1.6 0.00 0.00 0.00 76 1016.5
20260506001414 16 86 1.6 1.6 0.00 0.00 0.00 75 1016.3
20260506000911 16 124 0.0 0.0 0.00 0.00 0.00 77 1016.3
20260506000409 16 99 0.0 0.0 0.00 0.00 0.00 76 1016.4
20260505235905 16 89 0.0 0.0 0.00 0.00 0.00 76 1016.7
20260505235404 16 59 3.2 3.2 0.00 0.00 0.00 76 1016.5
20260505234900 16 95 0.0 1.6 0.00 0.00 0.00 75 1016.5
20260505234358 17 160 0.0 1.6 0.00 0.00 0.00 76 1016.6
20260505233854 17 86 0.0 0.0 0.00 0.00 0.00 76 1016.8
20260505233352 16 121 0.0 0.0 0.00 0.00 0.00 76 1016.7
20260505232849 16 56 0.0 0.0 0.00 0.00 0.00 76 1016.6
20260505232348 16 92 0.0 0.0 0.00 0.00 0.00 76 1016.9
20260505231844 16 165 1.6 3.2 0.00 0.00 0.00 76 1016.9
20260505231341 16 71 0.0 1.6 0.00 0.00 0.00 76 1017.0
20260505230839 16 118 1.6 1.6 0.00 0.00 0.00 77 1016.9
20260505230336 16 113 0.0 0.0 0.00 0.00 0.00 77 1017.1
20260505225833 16 161 1.6 1.6 0.00 0.00 0.00 77 1017.2
20260505225330 16 110 0.0 0.0 0.00 0.00 0.00 77 1017.2
20260505224825 16 169 0.0 0.0 0.00 0.00 0.00 78 1017.2
20260505224323 16 185 0.0 0.0 0.00 0.00 0.00 77 1017.2
20260505223820 16 223 3.2 3.2 0.00 0.00 0.00 78 1017.2
20260505223317 15 201 1.6 1.6 0.00 0.00 0.00 78 1017.2
20260505222813 15 216 3.2 3.2 0.00 0.00 0.00 78 1017.3
20260505222309 16 219 3.2 3.2 0.00 0.00 0.00 78 1017.3
20260505221806 16 189 0.0 1.6 0.00 0.00 0.00 77 1017.5
20260505221303 16 111 1.6 1.6 0.00 0.00 0.00 78 1017.5
20260505220800 16 104 1.6 1.6 0.00 0.00 0.00 77 1017.4
20260505220257 16 137 0.0 0.0 0.00 0.00 0.00 77 1017.5
20260505215755 16 122 0.0 0.0 0.00 0.00 0.00 78 1017.6
20260505215253 16 155 0.0 0.0 0.00 0.00 0.00 78 1017.5
20260505214750 15 157 0.0 1.6 0.00 0.00 0.00 78 1017.6
20260505214248 15 207 3.2 3.2 0.00 0.00 0.00 78 1017.5
20260505213745 15 141 0.0 0.0 0.00 0.00 0.00 78 1017.7
20260505213242 15 121 1.6 1.6 0.00 0.00 0.00 79 1017.6
20260505212737 15 92 0.0 0.0 0.00 0.00 0.00 78 1017.6
20260505212235 15 78 3.2 3.2 0.00 0.00 0.00 78 1017.5
20260505211732 15 139 1.6 1.6 0.00 0.00 0.00 79 1017.7
20260505211230 15 107 0.0 0.0 0.00 0.00 0.00 79 1017.5
20260505210726 15 199 1.6 1.6 0.00 0.00 0.00 79 1017.6
20260505210222 15 125 1.6 1.6 0.00 0.00 0.00 79 1017.7
20260505205720 15 155 0.0 0.0 0.00 0.00 0.00 79 1017.8
20260505205218 15 104 0.0 0.0 0.00 0.00 0.00 79 1017.7
20260505204714 15 113 0.0 0.0 0.00 0.00 0.00 79 1017.7
20260505204213 15 121 0.0 0.0 0.00 0.00 0.00 78 1017.8
20260505203709 15 109 0.0 0.0 0.00 0.00 0.00 79 1017.9
20260505203206 15 210 1.6 3.2 0.00 0.00 0.00 80 1017.8
20260505202702 15 121 0.0 0.0 0.00 0.00 0.00 80 1017.7
20260505202158 14 134 0.0 1.6 0.00 0.00 0.00 80 1017.8
20260505201654 14 112 0.0 1.6 0.00 0.00 0.00 80 1018.0
20260505201153 14 154 0.0 0.0 0.00 0.00 0.00 80 1017.9
20260505200650 14 222 3.2 3.2 0.00 0.00 0.00 81 1017.8
20260505200147 14 206 4.8 4.8 0.00 0.00 0.00 80 1017.6
20260505195643 14 138 0.0 0.0 0.00 0.00 0.00 81 1017.8
20260505195140 14 135 0.0 0.0 0.00 0.00 0.00 81 1017.6
20260505194638 14 190 0.0 0.0 0.00 0.00 0.00 81 1017.6
20260505194134 13 158 0.0 0.0 0.00 0.00 0.00 81 1017.9
20260505193630 13 102 0.0 0.0 0.00 0.00 0.00 81 1017.8
20260505193127 13 204 1.6 3.2 0.00 0.00 0.00 81 1017.9
20260505192626 13 198 0.0 1.6 0.00 0.00 0.00 81 1017.7
20260505192123 13 165 0.0 1.6 0.00 0.00 0.00 81 1017.8
20260505191621 13 199 1.6 3.2 0.00 0.00 0.00 81 1017.7
20260505191119 14 166 0.0 0.0 0.00 0.00 0.00 81 1017.5
20260505190615 13 225 1.6 1.6 0.00 0.00 0.00 81 1017.4
20260505190110 14 106 0.0 0.0 0.00 0.00 0.00 81 1017.8
20260505185607 13 117 0.0 0.0 0.00 0.00 0.00 81 1017.7
20260505185103 13 118 1.6 1.6 0.00 0.00 0.00 81 1017.6
20260505184600 13 76 0.0 1.6 0.00 0.00 0.00 81 1017.8
20260505184057 13 86 0.0 0.0 0.00 0.00 0.00 81 1017.7
20260505183553 13 194 1.6 3.2 0.00 0.00 0.00 80 1017.3
20260505183051 13 102 0.0 0.0 0.00 0.00 0.00 81 1017.5
20260505182547 13 195 0.0 0.0 0.00 0.00 0.00 81 1017.7
20260505182044 13 81 0.0 0.0 0.00 0.00 0.00 81 1017.6
20260505181541 13 123 0.0 0.0 0.00 0.00 0.00 82 1017.7
20260505181038 13 224 3.2 3.2 0.00 0.00 0.00 82 1017.5
20260505180533 13 117 0.0 0.0 0.00 0.00 0.00 82 1017.5
20260505180032 13 111 0.0 0.0 0.00 0.00 0.00 81 1017.5
20260505175532 13 122 0.0 0.0 0.00 0.00 0.00 83 1017.7
20260505175029 13 164 0.0 1.6 0.00 0.00 0.00 82 1017.7
20260505174526 13 104 0.0 1.6 0.00 0.00 0.00 83 1017.3
20260505174022 13 108 0.0 0.0 0.00 0.00 0.00 83 1017.7
20260505173519 13 191 1.6 1.6 0.00 0.00 0.00 83 1017.6
20260505173016 13 150 0.0 0.0 0.00 0.00 0.00 82 1017.5
20260505172514 13 146 1.6 1.6 0.00 0.00 0.00 82 1017.5
20260505172009 13 220 3.2 3.2 0.00 0.00 0.00 83 1017.4
20260505171505 13 172 0.0 0.0 0.00 0.00 0.00 82 1017.3
20260505171002 13 108 0.0 0.0 0.00 0.00 0.00 83 1017.5
20260505170458 12 186 1.6 1.6 0.00 0.00 0.00 83 1017.4
20260505165954 12 156 0.0 0.0 0.00 0.00 0.00 83 1017.4
20260505165450 12 139 0.0 0.0 0.00 0.00 0.00 83 1017.2
20260505164946 12 140 0.0 0.0 0.00 0.00 0.00 83 1017.1
20260505164442 12 166 0.0 0.0 0.00 0.00 0.00 83 1017.2
20260505163940 12 180 0.0 0.0 0.00 0.00 0.00 83 1017.3
20260505163439 12 149 1.6 1.6 0.00 0.00 0.00 83 1017.1
20260505162938 12 205 1.6 3.2 0.00 0.00 0.00 83 1017.4
20260505162433 12 160 1.6 1.6 0.00 0.00 0.00 83 1017.3
20260505161930 12 210 3.2 3.2 0.00 0.00 0.00 82 1017.2
20260505161426 12 215 0.0 0.0 0.00 0.00 0.00 83 1017.1
20260505160924 12 201 1.6 1.6 0.00 0.00 0.00 83 1017.1
20260505160422 12 107 0.0 0.0 0.00 0.00 0.00 83 1017.1
20260505152852 12 203 3.2 3.2 0.00 0.00 0.00 83 1016.9
20260505152350 12 97 0.0 0.0 0.00 0.00 0.00 84 1016.8
20260505151849 12 144 0.0 0.0 0.00 0.00 0.00 85 1016.9
20260505151346 12 78 0.0 0.0 0.00 0.00 0.00 84 1016.9
20260505150844 12 131 0.0 0.0 0.00 0.00 0.00 85 1016.7
20260505150341 12 314 0.0 1.6 0.00 0.00 0.00 85 1016.7
20260505140311 12 110 0.0 1.6 0.00 0.00 0.00 87 1016.3
20260505130234 11 116 0.0 0.0 0.00 0.00 0.00 88 1015.3
20260505124724 11 112 0.0 0.0 0.00 0.00 0.00 88 1015.3
20260505124221 11 181 1.6 1.6 0.00 0.00 0.00 88 1015.4
20260505123717 11 145 0.0 0.0 0.00 0.00 0.00 88 1015.4
20260505123214 11 119 0.0 0.0 0.00 0.00 0.00 88 1015.5
20260505122711 11 117 0.0 0.0 0.00 0.00 0.00 88 1015.2
20260505122208 11 173 0.0 0.0 0.00 0.00 0.00 87 1015.2
20260505121704 11 122 0.0 0.0 0.00 0.00 0.00 88 1015.1
20260505121201 11 144 0.0 0.0 0.00 0.00 0.00 88 1015.1
20260505120657 11 127 0.0 0.0 0.00 0.00 0.00 88 1015.2
20260505120153 11 106 0.0 0.0 0.00 0.00 0.00 88 1015.3
20260505115647 11 205 1.6 3.2 0.00 0.00 0.00 88 1015.1
20260505115145 11 186 0.0 1.6 0.00 0.00 0.00 88 1015.2
20260505114642 11 172 0.0 0.0 0.00 0.00 0.00 88 1015.0
20260505114138 11 128 0.0 0.0 0.00 0.00 0.00 88 1014.9
20260505113635 11 131 0.0 0.0 0.00 0.00 0.00 88 1015.2
20260505113131 11 125 1.6 1.6 0.00 0.00 0.00 88 1015.0
20260505112627 11 198 3.2 3.2 0.00 0.00 0.00 88 1015.1
20260505112126 11 93 0.0 1.6 0.00 0.00 0.00 88 1014.9
20260505111625 11 129 0.0 0.0 0.00 0.00 0.00 88 1014.9
20260505111121 11 135 0.0 0.0 0.00 0.00 0.00 88 1014.8
20260505110618 11 142 0.0 1.6 0.00 0.00 0.00 88 1014.9
20260505110115 11 79 1.6 3.2 0.00 0.00 0.00 88 1014.9
20260505102051 12 211 1.6 3.2 0.00 0.00 0.00 88 1014.6
20260505101549 12 237 1.6 1.6 0.00 0.00 0.00 88 1014.5
20260505101045 12 148 0.0 0.0 0.00 0.00 0.00 88 1014.5
20260505100542 12 194 0.0 0.0 0.00 0.00 0.00 88 1014.5
20260505100039 12 153 0.0 0.0 0.00 0.00 0.00 88 1014.5
20260505095535 12 112 0.0 0.0 0.00 0.00 0.00 88 1014.6
20260505095031 12 119 0.0 0.0 0.00 0.00 0.00 88 1014.4
20260505094528 12 111 0.0 0.0 0.00 0.00 0.00 88 1014.6
20260505094024 12 157 0.0 0.0 0.00 0.00 0.00 88 1014.6
20260505093521 12 155 0.0 0.0 0.00 0.00 0.00 88 1014.3
20260505093018 12 123 0.0 0.0 0.00 0.00 0.00 88 1014.3
20260505092516 12 123 0.0 0.0 0.00 0.00 0.00 88 1014.1
20260505092014 12 204 3.2 3.2 0.00 0.00 0.00 88 1014.3
20260505091511 12 152 0.0 0.0 0.00 0.00 0.00 88 1014.3
20260505091009 12 134 0.0 0.0 0.00 0.00 0.00 88 1014.2
20260505090506 12 186 0.0 0.0 0.00 0.00 0.00 88 1014.2
20260505090004 12 144 0.0 0.0 0.00 0.00 0.00 88 1014.2
20260505085501 12 188 0.0 0.0 0.00 0.00 0.00 88 1014.2
20260505084959 12 109 0.0 0.0 0.00 0.00 0.00 89 1014.4
20260505084457 12 136 0.0 0.0 0.00 0.00 0.00 89 1014.1
20260505083955 12 145 0.0 0.0 0.00 0.00 0.00 89 1013.9
20260505083452 12 118 1.6 1.6 0.00 0.00 0.00 89 1014.2
20260505082948 12 118 0.0 0.0 0.00 0.00 0.00 89 1014.0
20260505082444 12 209 3.2 4.8 0.00 0.00 0.00 89 1013.8
20260505081942 12 163 1.6 1.6 0.00 0.00 0.00 89 1014.0
20260505081438 12 97 0.0 0.0 0.00 0.00 0.00 89 1014.2
20260505080934 12 139 1.6 1.6 0.00 0.00 0.00 89 1014.0
20260505080431 12 122 1.6 1.6 0.00 0.00 0.00 89 1013.9
20260505075926 12 207 3.2 3.2 0.00 0.00 0.00 89 1013.9
20260505075423 12 165 1.6 3.2 0.00 0.00 0.00 88 1014.1
20260505074921 12 179 0.0 0.0 0.00 0.00 0.00 89 1014.1
20260505074418 12 98 0.0 0.0 0.00 0.00 0.00 89 1013.9
20260505073915 12 30 0.0 0.0 0.00 0.00 0.00 89 1013.8
20260505073413 12 128 0.0 1.6 0.00 0.00 0.00 89 1013.8
20260505072910 12 124 0.0 0.0 0.00 0.00 0.00 89 1013.8
20260505072406 11 142 0.0 0.0 0.00 0.00 0.00 89 1013.8
20260505071902 11 121 0.0 0.0 0.00 0.00 0.00 89 1013.7
20260505071358 11 127 0.0 0.0 0.00 0.00 0.00 89 1013.6
20260505070857 11 114 0.0 0.0 0.00 0.00 0.00 89 1013.5
20260505070353 11 125 0.0 0.0 0.00 0.00 0.00 89 1013.4
20260505065848 11 137 0.0 0.0 0.00 0.00 0.00 89 1013.4
20260505065345 11 140 0.0 0.0 0.00 0.00 0.00 88 1013.7
20260505064842 12 134 0.0 0.0 0.00 0.00 0.00 88 1013.3
20260505064339 12 141 0.0 0.0 0.00 0.00 0.00 88 1013.3
20260505063837 12 125 0.0 0.0 0.00 0.00 0.00 88 1013.1
20260505063333 12 140 0.0 0.0 0.00 0.00 0.00 88 1013.1
20260505062830 12 119 0.0 0.0 0.00 0.00 0.00 87 1013.2
20260505062327 12 118 0.0 0.0 0.00 0.00 0.00 88 1013.1
20260505061824 12 171 0.0 0.0 0.00 0.00 0.00 87 1013.2
20260505061322 12 191 1.6 1.6 0.00 0.00 0.00 87 1012.8
20260505060819 12 165 0.0 0.0 0.00 0.00 0.00 87 1012.7
20260505060316 12 126 0.0 0.0 0.00 0.00 0.00 87 1013.0
20260505055812 12 102 0.0 0.0 0.00 0.00 0.00 87 1012.8